Theta_e
307 307 307 307 306 307 307 306 306 306 307 307 307 307 307 308 307 307 308 308 308 309 309 309 309 309 310 310 311 311 312 312 312 312 312 313 314 314 316 316 315 314 313 313 312 313 313 313 313 312 317 318 316 317 315 318 324 332 334 323 318 321 321 322 327 322 316 319 321 317 315 314 316 316 313 311 313 316 316 315 315 313 311 312 311 310 311 311
307 307 307 307 307 306 306 307 307 307 307 308 308 308 309 309 308 308 308 308 309 309 309 309 309 310 310 311 311 312 313 313 312 312 314 317 316 315 317 315 314 314 313 312 313 312 313 314 312 314 322 319 314 318 320 316 322 338 331 316 324 332 324 323 327 323 317 315 316 316 314 313 314 313 312 313 315 316 316 315 315 316 315 312 309 310 310 310
307 307 307 308 308 307 307 307 308 307 307 309 309 310 311 311 309 309 308 309 309 309 309 310 310 311 312 312 313 314 313 312 313 313 317 319 316 315 316 314 313 314 313 313 313 312 313 314 312 316 324 320 316 320 325 319 320 329 324 320 334 333 322 322 323 320 317 315 316 317 313 314 314 312 311 313 315 316 315 316 315 317 317 314 311 308 307 309
307 307 306 307 307 308 308 308 307 307 307 308 308 309 311 311 312 312 311 310 310 311 311 311 312 313 314 315 315 316 313 314 314 314 316 317 315 315 315 314 314 314 313 312 313 313 313 313 312 318 322 320 319 320 322 320 318 318 320 328 331 321 318 321 322 321 319 314 314 316 315 316 314 311 312 313 315 315 315 315 316 315 313 314 313 307 304 304
307 307 306 307 308 308 309 309 308 308 308 308 308 309 309 310 311 313 314 313 312 312 313 313 314 315 315 315 316 315 314 317 315 313 315 316 315 315 314 314 313 313 313 313 313 313 313 312 314 321 321 318 319 319 318 319 317 317 323 327 326 319 316 320 323 320 316 313 314 316 316 315 313 312 313 314 314 314 314 314 313 312 311 312 311 305 302 302
307 307 307 307 308 308 308 308 308 309 309 309 309 310 311 311 311 312 314 314 314 313 314 314 314 314 313 314 316 315 314 315 313 313 316 315 315 314 314 314 314 313 313 313 314 313 314 313 316 322 321 317 316 315 314 316 315 318 323 322 322 319 317 320 321 317 314 314 316 316 313 311 312 313 314 313 313 314 313 312 311 310 308 306 305 303 304 305
307 307 307 307 308 309 308 308 309 309 310 310 311 311 311 312 312 312 313 314 314 313 313 312 312 312 311 313 317 318 317 316 314 316 318 316 314 314 314 314 314 313 313 313 313 315 317 316 317 320 319 315 314 314 313 313 314 318 322 322 320 317 318 321 319 317 314 314 315 313 310 311 314 314 312 313 313 312 310 307 307 305 302 303 304 303 305 305
308 307 307 307 308 309 309 309 309 310 311 311 312 312 312 312 312 312 313 313 313 313 312 312 312 310 310 313 318 322 321 319 316 316 318 317 314 313 314 314 314 314 313 313 313 315 316 315 316 315 315 314 313 314 312 312 316 319 321 322 318 316 320 320 317 317 314 313 312 310 311 313 314 312 312 314 312 311 309 307 304 303 303 304 305 304 303 303
309 308 307 307 308 310 310 311 311 311 312 312 312 313 313 313 312 313 313 313 313 314 314 314 313 311 310 312 316 320 320 318 317 317 318 317 316 315 315 315 314 314 312 312 313 312 313 316 316 313 314 314 312 313 313 313 317 319 320 319 316 315 316 315 315 315 313 314 311 311 314 314 311 310 313 314 311 309 311 310 306 309 310 305 304 304 303 303
311 311 311 309 308 311 312 312 312 312 312 312 312 313 313 314 314 315 315 315 316 317 316 315 314 312 311 312 315 317 317 319 320 320 319 318 318 317 316 315 314 314 312 312 312 311 313 315 312 311 314 315 311 312 313 313 314 316 317 317 315 314 314 314 315 314 311 312 311 312 314 313 309 311 316 313 309 311 315 312 308 311 312 304 304 303 302 302
312 312 313 312 311 312 313 313 313 313 313 313 313 314 314 315 316 317 318 318 318 318 317 316 314 313 312 312 316 316 315 319 320 319 319 318 317 317 316 315 314 313 313 312 312 311 312 312 308 309 313 313 312 312 313 312 312 312 313 314 316 315 314 315 316 313 311 312 312 312 314 313 308 312 317 311 309 312 316 314 309 311 310 304 304 302 301 301
312 312 313 313 312 313 314 314 314 313 314 313 314 315 316 317 318 319 319 319 319 318 317 317 314 312 311 312 315 314 313 317 319 317 317 317 316 316 314 314 313 313 313 312 312 312 312 311 310 312 314 312 313 313 312 312 310 312 313 314 317 318 316 314 313 313 312 312 313 312 315 318 315 316 316 309 308 312 313 311 308 310 308 304 304 302 301 300
312 311 312 313 313 314 314 314 315 315 315 315 316 317 318 319 319 319 320 319 319 318 317 316 313 311 311 314 314 311 312 315 317 317 316 316 315 314 314 314 313 313 313 313 313 313 313 312 312 313 313 315 317 312 312 314 311 313 314 313 315 317 319 315 310 312 313 312 313 312 317 327 328 321 313 308 309 312 312 307 306 309 306 304 303 302 301 300
312 312 312 313 313 314 314 315 315 315 316 317 317 319 319 319 320 320 320 318 318 317 316 314 313 311 312 316 314 311 313 313 313 316 316 315 314 314 315 315 314 314 314 313 313 313 314 312 311 312 312 315 315 309 315 321 318 315 312 317 320 315 324 323 312 313 314 312 311 312 318 324 326 319 309 307 311 313 313 310 308 309 305 303 303 301 301 299
313 314 313 313 313 314 314 315 315 316 318 318 319 319 319 320 320 319 318 317 316 316 314 312 311 312 314 317 313 312 314 313 315 316 316 315 315 316 315 314 314 313 314 313 313 312 312 312 313 315 313 311 313 315 320 325 327 323 314 324 326 316 324 327 314 315 315 311 310 312 319 320 320 316 307 307 313 315 316 313 309 307 304 302 301 300 301 299
315 315 314 314 314 314 314 315 316 318 319 319 319 320 320 320 319 317 316 314 313 314 313 313 312 312 317 317 313 313 314 314 316 316 317 317 316 316 314 314 313 312 313 312 312 312 311 314 313 313 314 312 317 328 328 324 329 328 317 322 327 318 320 320 315 316 314 311 311 312 317 318 318 316 308 307 312 317 319 313 307 305 303 301 300 300 299 299
317 316 315 315 316 315 314 315 317 318 320 320 320 320 320 319 318 315 314 313 315 315 314 314 313 313 316 315 314 315 314 313 315 316 318 317 316 316 314 312 311 310 312 311 312 312 311 314 312 312 316 315 317 326 327 322 325 327 319 317 322 319 317 318 318 316 313 313 313 313 314 314 316 315 311 307 308 316 317 309 305 302 301 301 300 300 299 298
317 317 315 315 316 315 315 316 317 318 320 320 320 320 318 316 315 315 316 316 315 315 314 313 313 317 318 315 314 315 313 312 314 315 317 317 315 314 314 311 308 309 313 313 312 313 313 315 317 318 318 314 314 319 322 323 325 329 323 318 321 319 316 318 319 316 314 315 315 316 315 315 316 313 311 306 306 312 310 304 303 302 301 301 300 299 299 298
318 318 316 314 315 315 315 317 318 318 318 319 320 319 316 314 314 315 314 315 318 319 319 317 316 320 321 317 314 313 313 313 314 315 315 315 313 312 312 310 311 313 315 315 313 313 315 317 319 320 318 315 315 316 318 321 322 325 323 321 323 322 319 319 317 315 313 313 316 315 314 316 316 314 311 306 304 307 305 303 303 302 301 300 300 299 299 298
319 319 316 315 315 315 316 318 319 318 317 319 319 317 318 321 322 321 318 318 321 321 321 322 320 321 320 317 314 313 314 314 313 314 314 313 312 312 311 310 315 317 318 323 318 312 313 317 319 319 319 318 315 315 315 316 316 316 317 317 320 320 319 318 316 315 312 313 319 318 316 317 316 315 310 305 307 307 304 304 302 301 301 300 300 299 298 298
320 320 317 315 315 316 318 320 319 318 318 319 319 318 324 328 325 325 325 324 319 315 319 320 316 318 317 314 314 313 316 317 314 313 313 312 311 313 314 313 317 319 319 323 318 311 312 317 321 322 320 316 314 314 312 312 313 313 314 315 317 318 317 315 313 315 312 313 320 319 317 317 317 315 308 304 308 307 303 304 302 301 301 299 299 299 298 298
321 320 317 316 317 318 319 320 320 318 318 319 319 318 319 320 319 318 321 326 322 315 317 317 314 317 316 313 314 314 318 323 319 314 312 312 312 314 317 317 320 322 318 318 317 315 315 318 320 319 316 312 313 313 311 312 312 312 313 313 315 316 316 319 317 316 314 313 320 321 316 317 316 311 306 304 305 303 301 302 301 300 300 299 299 298 298 297
320 319 316 316 317 319 320 320 320 318 318 319 318 318 316 316 317 315 316 325 327 319 318 320 319 320 319 316 315 315 319 322 322 319 312 311 314 315 317 318 319 321 317 317 320 321 321 323 319 313 312 312 314 314 312 313 312 313 314 313 316 315 317 323 320 317 315 312 317 319 315 318 315 309 306 303 302 302 301 301 300 300 299 298 298 297 297 297
318 318 316 316 317 319 320 320 320 319 320 319 318 318 317 316 315 315 317 322 325 322 320 318 317 322 323 317 314 317 320 321 323 321 312 312 316 314 316 318 318 319 317 317 320 320 323 323 317 312 313 314 314 315 314 314 315 318 317 314 316 316 316 320 318 316 319 317 314 314 317 324 319 313 310 305 303 303 301 301 301 300 299 298 298 297 296 296
318 317 315 316 318 320 320 320 320 320 320 318 318 318 317 316 314 314 319 324 326 324 318 314 315 320 319 314 315 318 320 321 322 318 311 311 315 315 315 315 317 320 318 315 315 317 319 317 314 315 315 314 315 316 317 317 317 320 321 316 316 318 317 317 316 316 321 324 316 311 322 334 326 318 312 307 306 304 302 302 301 300 300 299 299 298 297 296
317 316 315 316 318 319 319 320 321 321 319 317 318 319 316 316 315 314 321 327 328 325 320 317 318 319 315 313 315 317 321 321 315 310 310 310 313 315 316 314 315 319 318 316 316 317 318 314 313 316 317 316 316 317 318 317 317 320 321 318 315 315 315 316 316 317 323 325 315 310 319 330 330 325 315 308 308 305 302 303 301 300 300 299 299 298 297 296
317 316 316 316 318 319 319 320 321 320 320 320 319 319 317 316 316 314 320 329 328 324 322 318 316 316 314 311 312 319 325 320 311 308 309 310 310 312 317 317 315 316 315 317 321 320 317 316 315 315 317 318 317 318 318 316 319 324 320 318 319 317 318 320 318 319 323 322 318 317 317 319 326 325 312 307 310 306 303 303 301 300 300 299 298 298 297 296
317 316 316 316 317 319 319 321 320 319 321 322 319 319 318 316 316 316 324 333 330 321 320 317 312 312 310 307 311 317 316 313 315 312 307 308 310 311 318 320 318 318 315 318 325 321 315 316 318 316 316 317 318 321 319 315 320 323 316 316 319 318 321 322 320 320 318 316 323 325 317 316 327 323 308 306 311 309 306 304 302 301 300 299 298 297 297 296
316 316 316 316 317 318 319 321 320 320 321 320 319 320 317 315 316 320 327 332 327 318 317 315 310 310 310 310 312 313 308 309 316 313 307 308 310 310 315 318 319 318 313 317 324 320 314 313 317 319 319 319 320 319 316 315 318 316 311 315 317 317 320 321 322 322 316 316 325 326 319 319 328 326 312 308 313 314 310 305 302 302 300 299 298 297 296 296
316 316 316 316 317 318 319 320 320 322 321 319 320 319 317 317 319 325 330 330 325 318 313 312 311 311 315 315 315 313 309 310 312 311 311 311 311 311 311 311 316 319 316 318 321 319 314 310 312 317 318 320 319 313 310 314 314 311 314 321 320 318 321 321 323 321 317 323 325 321 319 318 323 328 319 313 314 314 310 305 303 302 301 300 299 298 297 296
316 316 317 317 318 318 319 319 320 322 321 319 320 317 317 322 323 330 331 327 324 320 313 313 312 312 316 320 319 314 310 311 311 312 314 312 313 314 311 310 316 322 321 320 321 319 316 313 314 315 315 316 318 314 310 311 311 313 321 325 321 321 320 320 323 321 321 329 323 315 315 315 320 326 319 314 311 308 307 305 303 302 301 300 299 298 297 296
316 317 317 318 318 318 319 320 320 322 321 319 319 317 320 326 326 330 328 323 326 323 317 318 313 311 315 317 319 315 312 312 311 314 316 314 315 316 315 317 319 322 323 321 323 321 319 319 316 313 312 314 322 320 313 311 311 316 322 322 323 324 322 323 325 321 323 324 315 312 315 314 319 321 315 315 312 305 304 304 302 301 301 300 300 299 297 297
317 317 318 319 319 319 320 321 320 322 322 319 319 319 323 328 330 329 325 325 328 322 318 321 316 314 315 314 316 314 313 313 311 313 314 314 316 315 315 317 315 319 322 319 320 321 322 322 315 313 314 313 319 320 318 318 315 315 321 322 324 325 326 330 327 320 322 319 311 310 314 316 320 317 311 311 308 302 301 303 302 300 300 299 299 299 298 297
317 317 318 318 319 319 319 320 321 322 321 318 320 321 323 328 331 329 325 326 326 320 318 319 315 314 315 316 318 315 314 315 311 312 313 312 316 317 317 314 311 319 324 319 319 321 325 327 318 316 316 313 314 316 323 327 318 314 319 320 322 326 329 330 328 325 325 321 314 310 314 323 323 313 305 303 302 299 300 302 301 300 299 299 299 299 298 297
318 318 318 318 318 318 319 319 320 321 319 319 322 324 325 329 329 328 326 325 324 320 318 318 315 314 315 316 318 316 315 316 312 312 314 314 318 321 322 317 313 320 323 320 321 319 321 326 320 313 311 311 313 313 317 323 319 314 314 316 320 324 324 322 321 321 320 320 318 314 317 323 317 307 301 302 301 299 300 300 300 300 300 299 299 298 298 298
319 318 318 318 317 318 318 319 320 319 318 320 324 326 325 327 326 326 324 322 322 319 317 319 319 317 318 318 318 315 314 317 315 313 313 315 317 318 320 320 315 316 319 321 324 320 319 324 318 310 310 310 310 312 313 318 320 315 313 319 319 315 317 320 317 313 313 320 320 317 319 319 312 307 303 301 301 300 299 300 300 300 300 299 299 299 299 298
316 315 315 315 316 317 317 318 318 317 318 322 326 325 322 322 321 320 320 318 319 319 319 322 321 319 320 320 320 318 317 318 315 314 315 317 316 316 318 320 314 312 315 319 322 322 322 324 317 312 314 310 305 310 312 312 316 317 318 320 315 311 316 321 321 319 318 321 320 317 319 320 318 315 306 302 303 301 300 300 300 299 300 300 299 299 299 299
313 312 312 312 315 316 316 316 316 315 318 322 326 325 321 320 318 316 318 317 319 322 324 324 322 320 321 321 321 319 318 318 316 316 318 318 317 317 318 319 314 312 314 313 316 319 319 322 319 311 313 312 307 312 316 310 309 315 318 315 313 318 322 318 319 324 322 321 322 320 317 317 319 317 312 309 307 303 301 301 300 300 300 299 299 299 299 299
311 312 312 310 313 315 314 314 313 315 318 321 325 324 320 319 317 315 317 317 319 324 325 323 320 320 321 321 322 318 318 319 317 317 318 317 317 316 315 317 316 313 315 313 316 319 316 319 321 312 310 312 312 316 321 316 309 310 312 311 312 318 323 320 318 321 322 321 323 321 317 318 319 318 320 317 308 302 301 300 300 299 299 299 299 298 299 299
310 313 312 308 310 313 312 312 313 316 318 318 320 318 316 317 316 315 316 317 318 320 321 321 320 320 320 319 319 318 319 321 317 317 319 316 316 315 313 317 317 313 313 314 317 320 316 316 321 318 312 312 316 318 320 320 316 314 314 315 314 314 316 318 316 318 322 322 323 320 318 322 321 314 317 316 307 301 301 300 300 299 298 298 298 298 298 298
309 315 312 306 308 311 311 313 314 315 315 313 314 314 314 316 315 315 316 316 316 316 317 319 319 319 319 318 318 317 318 321 319 318 319 316 317 316 314 316 318 314 313 314 317 321 318 316 322 324 318 319 322 316 311 314 316 317 319 319 318 317 317 319 317 317 319 320 322 321 319 321 317 308 308 310 305 301 300 300 300 299 299 299 298 298 298 297
312 316 311 306 308 310 312 313 311 310 311 311 313 313 313 314 315 315 316 316 317 316 316 317 317 318 318 317 318 318 318 320 319 318 319 318 318 317 313 312 315 316 318 318 318 318 318 318 322 324 322 320 317 309 305 308 311 314 316 317 318 318 318 320 319 318 318 317 318 319 319 318 311 305 306 307 304 302 300 300 300 299 299 299 299 299 298 297
313 311 308 306 308 311 312 312 309 308 309 310 312 312 312 314 314 314 315 315 315 315 315 316 316 316 316 315 316 317 317 318 319 319 320 320 319 313 311 312 313 315 319 319 317 316 316 318 320 321 321 317 312 309 307 307 310 313 314 314 316 318 318 318 318 319 320 318 317 318 319 317 310 305 306 305 303 302 301 301 301 300 300 300 300 300 299 298
309 308 307 307 309 311 312 312 310 309 309 310 311 311 311 313 313 313 314 314 315 316 315 315 314 314 315 315 315 316 316 316 317 318 318 319 316 309 308 312 312 313 317 317 318 317 316 319 321 320 321 318 315 315 314 312 313 316 316 315 315 316 316 314 314 315 317 318 317 316 317 317 312 307 306 304 301 301 301 301 301 301 302 302 302 301 300 299
308 308 308 308 308 310 311 310 310 310 309 310 310 310 310 311 311 312 313 314 316 317 315 314 315 315 315 315 315 316 316 315 315 316 316 317 315 309 308 310 311 314 316 315 315 316 316 319 320 319 319 318 318 319 319 318 316 315 316 315 313 313 314 315 315 315 315 317 317 315 316 317 314 309 307 305 302 301 301 301 301 302 303 304 303 303 301 300
308 308 308 307 308 309 310 310 310 310 309 310 311 310 310 310 310 311 312 313 314 315 314 315 315 314 315 316 316 316 316 315 315 316 316 317 315 310 308 308 309 312 313 312 314 316 318 318 318 319 319 317 317 318 317 316 316 316 316 315 314 313 312 314 316 316 315 315 315 315 315 315 314 312 309 306 304 304 303 301 302 303 304 304 303 301 300 299
306 307 306 306 307 308 309 310 311 310 309 310 311 310 309 310 310 310 311 311 313 313 313 314 314 313 314 315 316 317 317 316 315 315 317 318 315 309 306 306 308 310 310 310 312 316 318 318 316 318 318 315 315 316 314 312 313 315 315 314 314 312 311 312 314 314 315 314 313 314 313 313 313 312 312 311 308 306 303 301 302 303 303 302 300 300 300 299
304 306 306 307 308 308 308 309 310 309 308 310 310 310 310 310 309 310 310 310 311 312 312 313 314 314 314 316 316 316 316 316 315 315 316 316 314 311 309 307 306 307 309 309 310 314 318 318 316 315 316 315 312 311 313 313 312 312 313 313 313 311 310 312 312 311 312 312 312 312 312 312 310 309 312 314 310 306 304 302 301 300 299 299 300 301 303 300
301 303 304 305 307 308 308 309 310 309 309 309 308 309 309 309 309 309 310 311 311 311 312 312 313 314 314 315 315 314 315 316 315 315 316 316 314 313 314 313 308 306 308 309 309 311 315 316 314 312 314 315 310 307 308 310 310 311 311 311 310 308 308 309 310 308 308 310 310 309 309 309 307 307 311 312 307 305 305 303 302 299 298 300 301 301 301 298
301 302 304 305 305 305 308 310 310 310 309 308 308 308 308 308 309 308 309 312 311 311 311 310 311 314 314 314 315 313 313 315 314 314 316 316 314 312 315 317 312 306 307 309 308 308 310 313 311 310 313 313 307 304 305 306 307 309 310 308 306 306 305 306 307 307 306 307 307 306 307 306 305 306 308 307 306 305 305 305 303 300 299 301 301 301 301 298
297 297 300 305 306 305 307 310 309 310 310 309 309 308 307 307 308 307 309 310 310 311 313 311 311 314 313 312 313 313 313 314 315 316 316 316 314 312 313 314 312 310 309 308 308 309 309 309 308 308 313 311 304 303 305 303 304 306 307 306 304 304 305 305 305 306 306 307 306 306 307 306 304 304 303 303 305 304 303 303 302 301 300 300 301 301 300 297
295 295 297 303 307 305 306 309 309 308 309 308 308 307 307 307 307 308 308 309 310 310 311 311 311 312 312 312 312 312 313 314 311 308 308 309 309 309 310 310 310 312 310 307 307 308 308 309 309 309 312 309 302 301 303 303 306 308 307 306 305 303 304 304 304 304 304 305 306 306 306 304 302 302 300 300 302 301 300 300 300 300 299 298 299 299 297 295
Wind_Speed
1 1 1 2 2 2 3 3 2 1 2 2 2 2 2 3 3 3 4 4 4 5 5 6 7 8 9 10 12 14 15 16 16 15 10 8 4 3 4 1 1 0 0 2 4 4 3 4 3 4 4 3 4 3 4 4 3 5 4 3 1 3 3 5 6 5 3 3 6 4 4 1 6 6 4 3 2 3 5 5 6 5 5 7 7 10 13 14
2 2 2 2 3 3 3 3 2 2 1 2 2 2 2 3 3 3 4 4 5 6 6 6 7 8 9 10 12 14 16 16 16 12 7 5 1 6 4 2 1 1 1 1 3 2 3 1 2 6 6 3 3 3 3 3 3 4 3 2 2 5 5 5 6 5 3 3 6 5 3 1 5 4 3 4 6 6 7 7 4 5 8 8 7 8 12 13
3 3 3 3 3 3 3 3 2 2 2 1 2 2 2 3 3 4 4 4 5 6 6 7 7 8 9 10 11 13 15 14 10 6 4 2 5 6 4 3 2 2 1 1 2 2 3 4 4 6 5 3 2 3 3 3 2 2 4 1 5 6 4 4 5 6 5 2 5 6 2 2 5 3 2 4 8 7 6 6 3 5 8 9 9 9 12 13
5 4 3 3 4 3 3 3 3 3 3 2 2 2 3 3 3 4 4 5 5 6 6 7 7 8 8 9 9 11 12 9 4 2 3 4 6 6 4 3 2 1 1 1 3 4 6 7 7 6 4 3 4 3 2 3 1 2 3 3 5 3 2 5 6 6 5 2 2 4 5 7 5 2 0 3 7 10 7 6 5 4 6 9 11 11 14 14
6 5 4 4 5 4 3 3 3 3 3 3 3 3 3 3 3 4 4 5 6 6 7 8 8 8 8 8 7 8 8 6 2 1 2 3 5 5 4 2 0 2 1 2 4 5 6 6 7 6 4 2 3 4 1 2 2 1 3 5 5 3 2 6 4 4 3 2 1 4 6 7 4 1 2 2 4 9 7 1 4 3 5 7 8 10 12 14
7 6 5 5 5 5 5 4 4 3 3 3 3 4 4 4 4 4 4 5 6 7 8 8 8 8 7 6 5 4 4 1 4 1 1 3 4 4 3 1 2 3 2 3 5 5 4 6 6 4 3 3 1 0 1 3 2 1 3 2 3 4 3 5 2 2 3 2 3 3 4 3 5 7 4 4 9 12 6 5 4 2 3 3 6 8 10 11
7 7 6 5 6 6 6 5 4 4 4 4 4 5 5 5 5 5 5 6 7 7 8 8 9 8 6 4 3 3 4 3 7 4 5 4 5 4 3 2 2 2 3 4 4 4 5 6 4 3 3 2 1 2 2 2 3 2 3 4 3 4 5 6 3 3 1 2 7 2 3 4 5 7 3 7 11 8 6 4 3 2 10 11 10 8 9 10
8 8 6 6 6 6 6 5 5 4 4 4 5 5 5 5 5 6 6 7 8 8 8 8 8 6 4 1 1 4 2 6 7 6 7 5 6 5 3 3 2 3 4 5 4 5 4 4 3 4 2 1 3 2 1 1 3 3 4 4 2 3 6 6 5 6 4 6 5 0 4 8 8 3 3 12 8 5 4 4 4 6 12 12 10 10 9 10
7 7 7 7 7 6 6 5 5 4 4 4 4 4 5 5 5 6 7 7 7 7 7 6 7 4 2 1 5 3 4 5 4 4 5 6 7 7 6 5 4 4 4 5 5 7 4 3 4 4 3 2 4 3 1 1 2 4 5 3 3 5 6 6 6 6 4 4 2 2 8 8 5 1 4 10 5 5 3 7 7 8 10 10 9 9 10 10
8 7 7 7 7 6 6 5 5 4 4 4 4 4 5 5 5 6 6 6 6 6 6 5 5 3 2 2 6 1 5 2 2 3 3 5 6 6 6 5 5 5 5 5 6 8 4 5 5 4 4 2 4 2 2 3 2 4 4 4 5 7 7 4 7 6 3 3 4 5 9 6 3 2 3 3 6 4 6 9 7 9 10 8 8 8 10 11
8 7 6 7 6 6 5 5 5 4 4 4 4 5 5 5 5 6 6 6 5 5 5 4 3 2 2 4 5 4 4 2 3 3 3 3 4 5 5 6 5 5 6 5 7 8 4 7 8 6 2 2 3 1 1 3 2 2 0 5 6 7 7 5 6 6 2 3 4 6 5 5 3 1 4 2 6 5 9 7 8 10 7 7 8 7 9 11
9 7 7 7 7 6 5 5 5 4 4 5 5 5 5 5 5 6 5 5 5 5 5 3 3 2 2 2 4 8 6 3 3 2 3 3 3 5 4 4 4 4 5 4 5 8 5 7 10 5 2 4 3 0 2 2 2 2 3 5 8 8 7 6 3 3 1 1 3 6 3 6 2 6 5 5 5 5 9 7 8 8 6 7 7 7 8 10
11 9 8 8 6 6 6 5 4 4 5 5 5 4 5 5 5 6 5 5 5 4 4 3 2 4 3 1 5 10 11 8 6 5 4 4 4 4 3 3 4 4 3 2 3 6 6 8 9 5 3 5 1 1 2 3 2 1 3 3 6 7 7 6 1 3 4 0 3 3 3 6 7 9 4 7 4 5 8 7 7 6 6 7 6 7 7 11
11 9 8 8 7 7 5 4 4 5 5 5 4 4 5 5 5 5 4 4 5 4 4 2 3 4 3 3 5 6 10 10 9 7 5 6 5 5 4 3 4 3 2 3 4 4 5 8 7 4 2 2 1 1 3 5 3 2 2 2 3 2 5 7 1 1 4 2 2 3 2 6 10 7 4 6 5 8 8 6 7 6 7 6 6 7 6 9
9 9 9 7 7 6 4 4 5 5 5 4 4 4 5 5 4 4 4 4 3 2 1 2 5 5 2 5 6 4 6 7 7 8 6 7 6 4 3 4 5 5 5 5 6 6 5 7 6 4 0 2 3 3 2 5 4 2 1 3 3 2 5 10 4 2 1 2 4 4 3 6 10 6 4 6 7 8 8 6 7 7 7 7 6 7 6 7
8 10 10 8 8 6 4 5 5 4 4 4 3 4 4 4 3 2 2 1 1 2 3 3 5 5 1 3 2 3 5 4 5 7 8 8 5 3 5 7 7 7 7 6 6 6 6 5 3 2 1 1 4 4 3 4 4 3 0 3 3 2 3 7 4 0 1 1 4 2 2 4 8 6 4 9 9 7 8 6 7 7 7 7 6 6 6 6
8 10 10 10 9 6 5 5 4 4 4 3 3 3 3 2 1 1 2 4 5 5 5 4 5 3 1 2 1 3 3 4 4 6 9 8 5 6 8 7 5 6 7 5 4 3 5 5 1 1 2 2 3 5 3 2 4 3 1 2 4 3 2 4 4 4 4 3 2 2 2 5 10 9 6 11 8 8 8 6 6 6 6 6 5 6 6 7
10 10 10 11 9 6 5 5 3 4 4 3 2 1 0 2 2 3 5 6 6 6 4 2 4 1 3 2 2 2 1 3 5 6 9 7 5 8 8 5 5 7 6 4 3 2 2 3 2 1 3 2 2 5 3 5 5 3 3 2 3 3 3 4 4 3 5 6 4 4 4 8 12 10 7 10 8 8 8 5 6 6 6 5 5 6 6 7
12 12 11 11 8 7 6 4 3 3 3 3 1 3 4 3 2 2 4 4 3 2 1 3 3 2 3 3 2 1 4 5 6 6 8 9 8 8 7 6 6 6 4 1 1 1 1 3 3 1 1 3 4 6 8 9 7 6 5 4 4 4 4 5 6 4 2 4 5 6 7 8 10 9 6 8 6 8 7 5 6 5 5 5 5 5 5 6
15 14 12 11 10 8 7 5 3 2 3 3 2 5 3 2 2 2 1 2 4 4 3 5 6 2 2 2 1 5 5 4 3 4 8 10 10 9 6 4 6 4 3 3 2 1 3 3 2 4 6 7 8 10 10 6 4 4 3 3 4 5 5 6 5 4 1 1 6 6 5 7 8 6 6 6 5 8 7 6 6 5 5 5 5 6 6 6
19 16 13 12 12 10 7 5 3 1 4 3 4 4 2 3 2 1 2 3 9 9 5 5 6 5 5 2 5 7 4 1 1 3 9 10 10 8 1 3 4 1 1 3 2 2 2 4 6 9 10 8 7 9 8 3 1 2 3 3 4 4 6 7 4 4 1 2 5 4 4 9 6 3 6 5 7 7 5 5 5 5 5 4 6 6 5 4
19 17 15 14 13 11 7 6 3 2 5 4 5 3 2 3 3 1 1 2 8 10 9 6 3 7 6 3 5 6 3 1 1 1 9 8 5 5 1 4 5 3 1 2 2 1 0 4 10 12 7 2 2 3 4 4 4 3 2 2 4 4 3 7 4 5 2 3 4 4 3 9 4 5 5 6 7 4 4 4 4 4 5 5 5 5 5 5
19 17 16 15 14 12 8 5 3 3 7 6 6 5 3 2 3 2 2 0 5 4 6 6 5 6 6 4 7 7 2 4 3 4 11 10 2 4 4 4 5 3 2 4 4 3 3 6 11 9 4 3 2 3 6 3 3 3 3 3 5 2 0 4 4 5 3 1 2 1 3 7 2 4 5 6 5 4 5 5 5 5 4 4 4 4 4 5
20 18 17 16 15 12 8 4 4 7 9 9 9 7 4 4 5 3 1 0 4 4 4 6 5 5 6 4 7 10 4 4 4 4 12 12 4 3 4 5 5 3 4 7 8 6 7 7 4 3 5 6 6 2 6 4 2 3 5 6 5 4 6 6 3 4 3 3 1 1 4 5 2 1 2 3 3 4 4 5 6 5 4 4 4 4 5 5
21 19 18 17 15 12 7 3 7 9 9 8 10 10 7 6 5 3 1 1 3 5 3 4 3 4 6 4 7 9 2 2 3 4 10 12 7 4 2 2 4 5 6 6 5 6 8 5 3 4 3 5 6 5 5 6 3 4 5 10 10 8 8 6 2 4 3 4 3 2 2 5 4 2 2 1 3 4 4 5 5 5 5 5 4 4 5 5
21 20 19 18 15 11 6 3 7 10 8 6 8 9 9 7 6 4 3 2 4 4 1 3 3 5 6 4 4 5 2 3 3 2 7 8 6 5 2 1 1 3 6 4 2 3 4 2 2 5 4 6 5 5 5 7 4 3 5 9 10 8 6 5 2 2 1 2 2 2 1 4 5 3 3 2 3 4 3 4 4 4 4 4 3 4 4 5
21 21 20 18 16 13 7 2 6 10 5 5 8 10 10 9 7 4 2 3 5 3 4 1 0 4 6 2 2 5 2 4 1 3 2 3 2 3 3 4 2 1 4 4 0 3 2 2 2 4 4 5 5 4 6 8 6 3 4 4 6 7 7 6 5 4 3 2 3 3 2 3 4 4 3 4 4 3 2 2 2 2 2 2 3 3 4 4
22 21 21 19 18 17 10 2 7 10 3 4 11 12 10 9 6 2 3 1 4 2 4 1 1 3 2 1 3 4 2 1 3 1 2 3 0 2 2 5 6 4 2 5 3 4 2 1 2 5 4 4 5 4 8 10 5 5 2 5 6 6 6 5 6 3 1 1 3 4 1 2 5 4 1 2 2 0 2 4 2 2 1 1 0 2 3 3
22 22 21 20 18 17 14 7 7 8 5 6 12 12 10 9 5 3 3 3 2 2 2 1 2 1 2 3 3 3 1 2 2 2 3 3 1 3 2 5 6 6 1 3 4 3 1 2 4 6 4 5 4 2 6 9 4 3 5 6 5 5 4 4 4 3 2 1 4 5 3 2 5 4 1 1 3 4 5 5 4 4 4 3 2 1 2 3
23 23 22 20 17 17 17 14 13 9 5 9 12 11 11 7 2 3 3 5 1 1 0 2 2 1 4 5 0 2 2 1 1 2 3 1 3 5 1 2 6 5 1 4 2 3 1 1 2 4 3 5 4 2 2 3 2 4 5 6 6 5 4 3 2 3 2 2 5 5 5 4 3 5 3 3 3 5 6 4 4 5 5 5 4 2 1 1
23 23 23 21 19 20 15 11 18 15 7 11 13 11 8 2 2 4 7 3 2 1 2 2 1 3 6 6 2 1 2 1 1 2 2 1 2 4 2 2 4 4 3 4 3 4 4 2 1 1 2 4 5 5 3 2 3 4 3 4 3 3 4 4 4 3 1 5 5 3 2 4 4 5 3 4 3 4 6 7 9 8 7 6 5 4 3 1
25 23 23 23 22 23 15 7 16 19 12 13 14 7 4 1 2 7 5 1 0 3 4 3 2 4 5 4 2 3 3 1 0 3 3 2 2 3 2 3 4 2 2 3 2 4 3 4 2 1 2 4 5 4 3 4 4 4 3 4 3 2 3 2 3 0 3 5 3 2 1 3 5 5 3 3 3 3 3 4 9 11 9 7 6 5 3 2
25 22 22 24 24 25 20 12 14 20 19 17 11 3 3 4 8 10 7 2 2 3 3 4 2 4 7 4 2 3 3 2 3 2 2 3 3 4 2 2 5 2 0 3 2 1 3 5 1 2 2 2 6 5 1 0 2 3 4 4 3 1 0 3 3 2 4 3 2 2 0 1 5 3 2 4 4 4 5 5 7 9 9 8 6 5 3 2
24 24 25 27 27 27 26 20 15 20 24 19 8 3 4 7 6 6 9 6 2 1 3 4 5 5 6 4 3 4 3 2 4 4 2 3 3 3 4 3 4 3 3 2 2 3 1 4 2 4 1 1 5 4 4 5 4 3 4 5 4 4 3 4 3 3 4 3 2 3 1 3 3 2 2 5 5 4 3 4 6 6 5 5 5 4 4 3
25 27 28 28 27 28 29 26 22 24 25 15 5 6 9 9 3 3 7 5 2 2 2 2 5 6 3 2 2 3 4 3 3 5 2 3 4 4 4 5 5 4 4 3 2 2 2 4 4 2 1 3 3 2 4 6 3 2 3 4 2 4 4 2 3 5 3 2 3 2 2 3 3 1 2 2 1 3 2 5 7 6 4 5 4 4 4 4
28 29 27 25 26 28 29 27 26 30 24 8 4 8 9 6 2 1 3 2 3 6 6 3 3 4 3 2 2 4 2 1 4 4 2 3 4 4 4 4 6 7 5 4 3 2 2 4 4 2 0 2 2 2 2 3 2 1 2 3 4 4 5 2 2 1 3 1 4 2 2 4 0 1 3 3 3 3 3 5 7 6 5 5 5 5 5 5
26 23 19 19 23 25 26 26 29 31 19 5 7 9 4 2 3 2 2 1 1 5 8 4 2 4 5 3 3 4 2 2 3 3 3 3 3 5 4 3 5 10 8 4 2 3 4 2 5 1 1 1 1 3 3 3 3 4 2 5 3 2 3 3 1 3 3 3 4 1 3 4 2 1 3 2 1 2 4 6 6 5 5 6 7 6 6 6
22 14 9 14 22 23 22 26 30 23 8 4 11 10 4 3 3 1 2 2 2 2 4 5 3 2 4 4 3 4 4 4 3 4 4 3 2 4 5 3 3 6 5 3 1 1 4 1 5 1 2 2 2 3 3 4 3 4 3 2 2 2 1 2 1 2 1 3 4 2 3 3 4 4 2 3 7 8 8 7 7 9 8 8 8 7 6 6
18 7 2 9 20 22 20 23 22 11 3 6 10 8 2 1 2 1 1 1 1 2 2 2 1 2 2 3 3 2 3 4 5 4 2 3 3 3 4 3 3 1 2 3 4 1 3 1 4 2 2 2 3 2 2 1 2 3 1 1 2 2 3 2 2 2 2 2 4 4 3 3 5 6 8 10 11 12 11 10 11 12 10 9 9 8 7 6
11 4 1 5 16 20 17 14 9 3 3 4 4 3 1 0 1 0 2 1 1 2 1 1 2 2 2 2 1 1 1 2 4 3 1 2 2 2 2 2 4 2 1 3 3 1 3 1 3 3 3 1 1 2 5 6 3 2 2 1 0 1 1 1 1 2 3 2 2 4 6 5 4 3 7 9 10 13 16 15 13 11 11 11 9 8 8 7
5 4 0 3 13 15 11 6 2 2 2 1 1 2 1 0 1 0 2 3 2 2 2 2 3 2 2 2 0 1 2 2 4 3 1 2 2 2 1 1 4 5 3 4 2 2 1 2 3 1 1 2 4 4 4 5 5 5 4 4 4 3 3 1 3 1 2 2 3 3 7 7 3 1 2 3 6 11 14 13 12 12 13 12 8 8 8 7
3 3 1 5 12 10 6 3 1 1 2 1 2 2 1 1 1 1 2 4 3 3 3 2 2 2 2 2 2 3 3 2 3 3 2 3 4 3 1 2 2 4 5 3 2 2 2 3 3 1 2 5 5 3 2 3 3 4 3 3 3 4 4 4 6 3 1 2 1 2 4 6 2 1 2 3 5 7 8 8 9 10 11 8 7 7 7 6
2 2 1 4 8 4 3 3 1 2 2 2 1 1 1 2 2 2 2 3 2 2 2 1 1 2 2 2 2 2 2 2 3 4 3 3 3 3 0 1 2 3 4 2 2 1 1 3 2 2 3 2 4 4 2 2 2 1 1 2 4 3 3 4 5 2 2 3 1 0 5 5 2 2 2 2 3 4 6 7 8 8 6 6 7 7 6 6
2 2 2 2 3 1 3 2 2 3 2 1 2 1 2 2 1 1 1 1 1 3 2 1 1 2 2 2 2 3 3 2 3 3 3 3 2 0 3 2 1 2 1 2 3 3 2 1 2 0 3 4 4 3 3 4 1 2 2 1 2 3 4 2 1 2 1 6 6 4 8 6 2 2 3 3 3 4 5 6 7 7 6 6 6 6 6 6
2 2 2 2 2 2 2 1 1 3 3 2 3 3 1 1 1 2 3 3 2 3 3 1 1 2 2 2 2 2 3 2 3 1 1 1 1 2 4 4 1 1 1 1 1 2 3 2 3 3 5 7 5 3 2 2 1 2 2 3 4 5 6 3 1 2 4 4 5 7 8 4 3 2 4 4 4 4 5 6 5 4 5 6 6 5 6 6
2 2 1 1 3 2 0 1 2 2 3 3 1 2 5 3 1 1 3 4 2 3 3 1 0 1 2 2 2 3 4 3 3 1 1 2 1 2 2 3 2 1 0 2 2 1 3 2 3 6 7 8 6 5 4 3 3 3 4 5 6 5 6 5 3 4 4 0 3 8 3 2 6 4 2 2 3 5 7 7 7 6 6 6 5 5 5 5
1 1 3 3 0 1 1 1 3 2 2 4 2 2 6 6 2 0 2 3 2 3 3 2 3 3 3 3 3 4 5 4 4 2 2 2 1 2 1 2 2 1 1 2 2 2 4 2 4 6 7 6 4 4 4 4 4 6 6 6 7 6 7 7 5 6 4 1 9 8 4 3 12 7 4 5 5 6 7 8 8 7 6 5 3 3 4 5
1 1 2 2 1 3 3 3 6 5 3 4 2 1 4 6 5 3 2 0 1 3 4 2 4 8 7 5 5 4 3 4 4 3 2 2 1 1 1 0 0 2 3 2 2 3 4 4 3 4 6 5 2 1 3 4 4 4 6 9 9 7 9 10 10 8 7 7 13 7 6 8 10 3 5 7 7 7 8 7 5 3 3 2 2 3 5 6
1 0 1 1 1 2 3 4 8 9 7 5 2 2 4 6 6 4 2 2 0 3 5 5 5 8 8 6 6 5 4 5 4 3 3 2 2 2 1 1 1 2 3 2 2 1 3 2 1 3 4 5 0 2 1 4 4 5 8 11 8 7 10 10 9 7 7 10 12 5 3 10 8 4 6 6 4 5 4 3 3 2 3 4 4 6 7 6
2 1 1 2 2 1 0 3 7 7 6 6 6 4 4 6 7 4 2 4 4 2 5 9 7 6 7 8 8 9 8 7 5 5 5 4 2 2 2 3 2 2 2 2 0 1 1 1 2 3 2 5 1 3 2 1 3 6 12 12 5 5 6 6 6 5 4 8 10 6 9 13 7 5 5 4 2 3 4 5 5 5 5 5 6 7 7 6
3 1 2 3 2 3 2 3 5 5 4 6 7 5 5 7 8 6 3 4 7 5 6 11 9 5 5 7 10 12 9 7 7 7 7 6 4 3 3 3 5 4 2 2 1 1 2 1 2 3 2 4 1 4 2 1 0 8 16 13 6 6 6 6 5 6 6 9 10 8 10 11 4 4 3 4 4 6 8 7 6 6 6 5 6 7 7 7
3 3 2 2 2 3 4 3 5 5 5 6 7 6 6 7 7 8 5 3 4 5 5 8 9 5 4 7 10 10 6 6 5 4 4 3 2 2 1 2 5 6 5 4 1 1 3 3 2 3 4 2 1 3 4 3 1 9 13 8 9 10 8 5 5 8 9 9 7 8 10 7 1 5 3 5 6 7 7 7 6 7 6 6 7 8 7 7
Wind_Direction
294 286 257 252 249 249 259 272 283 302 313 311 319 324 329 328 319 325 328 329 327 325 327 326 329 331 333 338 341 342 340 336 329 323 316 312 307 196 183 140 51 6 183 176 171 157 90 49 25 32 50 44 11 339 357 6 55 53 78 88 340 201 200 186 183 194 179 282 285 332 22 359 298 316 320 315 3 327 324 303 276 289 269 248 272 301 312 317
290 286 266 258 256 258 264 270 279 286 294 310 325 323 318 313 311 316 315 317 316 314 318 319 325 327 334 342 343 344 340 333 325 320 324 319 210 163 172 147 78 113 127 157 183 144 96 45 21 47 49 43 345 344 5 360 54 80 112 85 246 203 212 198 178 197 202 295 291 304 346 247 261 289 348 320 305 337 329 295 308 308 291 300 304 311 321 323
294 299 277 260 262 268 267 262 260 262 269 284 300 316 318 313 312 312 306 306 305 306 311 314 322 327 337 341 345 349 340 334 326 328 6 39 149 160 162 129 83 117 122 99 165 91 103 134 76 61 48 49 352 352 26 11 23 130 115 71 247 214 240 232 192 213 225 297 314 304 326 308 263 246 339 315 298 314 296 276 309 305 305 322 314 324 338 332
293 296 281 271 271 273 275 262 255 258 262 266 279 295 306 313 317 316 309 301 301 303 307 314 321 328 334 338 348 348 344 350 328 324 37 93 143 156 143 103 59 126 166 94 129 94 95 99 68 60 61 40 340 2 32 338 3 125 132 183 226 196 266 244 205 225 237 216 266 302 334 313 288 198 221 327 321 310 282 234 220 276 310 312 310 333 355 357
286 287 276 271 274 275 277 267 266 267 264 268 279 286 292 299 304 317 320 311 305 306 310 315 318 324 328 335 349 347 3 23 287 281 59 142 151 157 139 100 165 183 158 119 127 106 88 76 59 53 55 34 346 20 12 307 78 127 217 197 190 155 260 261 212 215 210 139 258 324 322 297 310 342 221 273 298 276 281 124 163 240 284 287 315 340 6 20
281 281 267 263 272 272 271 270 274 274 271 279 286 291 296 297 299 310 320 314 305 305 308 309 314 321 324 332 346 4 51 31 256 228 246 201 179 170 158 178 186 167 161 142 128 104 74 53 53 58 48 39 8 25 260 310 56 188 271 273 217 174 225 274 267 210 129 64 292 287 292 303 339 306 257 235 243 247 282 60 127 246 315 1 32 16 22 29
275 277 261 254 263 266 266 265 267 271 278 287 291 294 299 306 307 308 315 312 303 304 307 308 312 315 322 331 341 33 79 251 260 244 259 235 210 199 179 237 183 172 190 154 125 107 85 64 70 123 82 31 206 209 252 337 45 145 259 306 271 191 218 257 292 300 101 246 260 245 318 309 284 288 332 267 255 271 317 54 120 57 48 52 55 39 32 32
272 274 262 248 251 260 263 265 269 275 285 288 295 301 303 308 308 310 314 310 307 307 307 307 310 315 323 330 78 21 2 251 260 252 258 246 224 216 218 253 219 211 197 178 160 137 114 103 150 154 98 280 183 167 221 14 31 165 223 274 273 226 246 272 294 291 272 246 250 178 282 266 246 252 323 271 280 5 360 46 54 64 59 52 51 39 33 31
269 270 262 248 244 252 256 260 264 267 278 279 288 297 299 303 305 311 308 307 309 304 307 309 307 311 301 91 89 18 278 241 257 258 258 246 232 230 245 248 223 220 183 180 178 155 159 173 186 185 169 192 166 168 178 157 282 209 202 248 279 288 289 301 293 280 273 249 193 226 274 273 263 262 271 272 319 10 26 46 41 64 57 45 47 40 35 31
267 267 265 255 242 249 251 250 255 258 268 269 277 286 286 292 298 302 300 303 304 299 307 306 301 299 232 114 92 291 261 238 268 273 270 247 237 237 239 231 220 217 175 162 172 161 173 193 179 152 142 139 155 164 148 156 203 187 190 251 262 292 303 287 275 280 292 270 202 222 276 290 325 329 259 322 6 356 48 41 31 61 54 43 45 39 39 35
267 267 269 263 247 250 256 256 258 254 262 271 277 278 279 288 293 295 296 297 298 299 303 300 300 280 184 124 130 220 254 252 265 276 275 248 234 229 221 221 220 211 181 156 181 185 178 178 151 118 138 169 150 140 236 193 143 132 195 297 288 313 305 257 270 289 304 282 194 177 260 300 6 280 220 29 14 32 65 38 30 55 47 41 44 39 40 32
264 259 261 266 255 255 265 266 265 263 275 280 276 279 283 288 290 291 293 295 296 296 294 298 287 215 136 87 200 229 243 240 250 276 281 254 223 213 203 207 198 196 194 167 194 201 189 173 144 121 196 155 135 262 229 204 96 86 44 331 306 343 326 276 284 321 8 253 172 147 285 313 294 233 242 16 15 61 70 46 39 52 39 39 39 37 39 27
263 258 252 258 258 260 266 267 271 283 289 283 280 287 287 289 293 292 291 293 293 296 293 289 249 183 132 333 239 237 243 243 254 272 274 242 208 187 169 171 168 176 209 185 179 185 193 191 159 144 144 118 159 210 105 56 51 313 32 28 315 352 327 291 59 15 356 242 166 134 292 293 263 250 300 358 0 54 58 54 48 44 37 35 30 33 33 25
268 273 257 254 259 260 257 263 283 295 293 286 288 291 289 293 293 291 292 292 294 294 291 265 192 161 136 249 257 257 249 244 250 255 240 210 177 145 126 125 148 155 162 146 135 135 172 181 148 119 101 95 170 148 48 12 16 318 346 42 355 355 284 295 325 354 342 348 98 110 216 267 274 282 10 351 349 42 48 53 48 39 36 27 26 28 23 24
275 282 269 258 261 258 243 257 283 295 292 285 293 293 293 297 295 296 291 291 307 289 254 147 161 141 75 275 267 274 257 242 236 230 213 190 170 142 115 117 123 121 122 127 116 98 121 145 123 104 204 1 65 92 9 348 11 24 324 309 339 184 266 308 308 184 206 339 42 101 206 272 276 279 55 10 358 46 61 53 43 39 35 27 27 24 18 17
270 274 273 267 262 249 234 254 274 292 290 288 301 302 300 299 296 295 278 286 66 108 103 123 147 125 56 272 265 273 253 229 217 214 200 189 191 173 133 124 112 113 120 111 104 95 84 90 84 91 141 46 76 90 43 2 338 356 98 249 266 202 272 316 323 24 125 43 31 67 226 280 283 275 51 29 12 53 73 59 47 42 36 32 29 24 24 14
270 268 269 271 261 233 232 253 264 288 288 289 306 308 310 308 288 169 120 106 103 90 80 118 131 99 275 241 257 281 249 200 196 192 189 189 195 169 141 120 101 106 106 87 93 88 42 45 43 323 45 56 96 96 59 322 286 312 17 224 248 214 222 296 309 347 38 74 29 12 239 256 279 290 8 25 17 60 74 62 53 48 40 36 33 32 29 22
277 274 264 267 256 224 233 246 258 289 288 301 317 319 29 115 122 129 134 120 94 68 54 100 112 78 272 237 216 254 147 163 168 161 173 169 159 159 144 122 114 103 79 48 48 62 11 27 67 21 22 26 117 116 158 231 215 212 211 207 254 241 222 263 271 304 21 30 345 325 280 266 276 290 6 20 18 65 74 66 62 52 47 40 36 41 34 29
271 277 268 260 246 229 235 234 250 284 289 308 336 118 109 111 112 143 149 133 114 112 204 210 154 147 239 251 236 139 105 128 140 145 155 149 145 139 120 105 105 99 88 70 7 54 95 54 70 138 234 215 185 172 199 215 195 195 208 189 212 240 244 244 249 264 7 11 308 274 266 269 277 294 5 11 18 66 66 56 57 42 44 41 38 41 35 38
259 268 267 252 236 229 227 229 243 252 291 300 152 127 118 107 40 305 238 189 209 194 171 198 195 203 258 264 162 136 125 122 132 152 154 154 147 125 94 62 64 67 102 155 195 36 110 145 184 207 218 212 201 203 211 215 181 175 205 209 211 227 260 264 265 284 48 42 276 260 266 271 270 307 359 359 31 56 44 45 47 34 40 35 39 38 29 37
254 259 259 245 231 225 217 225 222 206 288 271 175 152 174 166 122 286 255 257 247 234 234 221 210 249 264 215 161 153 138 84 53 137 158 161 149 138 99 37 86 63 263 164 155 43 110 180 221 227 223 212 202 210 222 242 196 179 209 244 258 228 254 270 269 304 356 175 263 294 307 283 282 359 5 17 52 44 26 45 41 32 39 31 37 34 23 25
250 251 252 240 230 226 214 213 199 216 282 252 193 207 251 199 174 192 143 283 268 240 234 243 248 264 257 220 188 159 106 308 319 194 170 154 140 178 205 74 137 201 249 131 109 15 218 216 235 237 224 163 139 171 193 225 223 226 200 221 267 244 281 292 293 338 17 172 265 334 310 280 306 43 25 35 60 51 37 57 49 41 45 36 37 27 21 28
247 246 245 236 230 228 211 202 209 254 263 234 202 216 251 223 175 145 111 254 291 257 218 220 223 240 239 238 206 172 175 218 233 245 183 154 131 189 140 117 164 160 128 179 179 181 217 242 239 230 170 164 226 118 128 171 219 220 190 196 251 237 346 283 292 342 12 137 267 342 298 279 307 64 45 46 71 74 54 58 57 52 53 47 41 26 27 35
245 243 238 231 229 224 203 208 256 257 248 231 223 226 222 196 164 141 102 278 289 279 229 208 201 210 213 224 190 176 200 207 195 228 182 159 133 149 155 157 153 146 193 202 194 204 235 248 230 146 140 187 220 174 144 167 242 242 209 206 231 223 214 229 283 332 344 11 13 66 321 297 293 45 71 58 60 60 40 47 50 34 33 42 40 30 28 34
241 238 232 226 225 215 193 233 258 238 223 217 230 228 205 185 161 135 73 10 287 289 281 214 198 208 193 156 164 170 174 220 216 212 177 166 149 137 182 162 140 196 205 184 191 238 258 250 143 120 142 163 193 221 185 172 217 278 231 210 217 222 224 230 347 6 3 357 349 40 332 293 320 344 173 133 37 42 23 38 46 22 19 25 26 20 18 28
238 232 226 222 218 202 186 250 238 210 198 206 220 208 190 178 160 144 88 28 273 267 256 196 178 182 174 135 153 148 91 270 252 130 159 173 160 127 148 163 91 208 186 148 174 233 265 286 138 175 181 156 183 241 220 170 156 282 248 207 211 212 212 214 151 107 146 261 315 51 163 257 316 324 201 166 71 51 28 39 38 18 19 13 12 14 15 24
233 227 221 220 212 192 182 245 196 178 180 217 201 186 184 176 168 172 75 359 273 199 134 221 179 149 167 168 146 140 178 264 51 72 124 157 170 89 131 182 136 191 175 126 204 237 199 32 57 162 163 163 190 243 218 163 136 244 250 164 171 184 192 192 162 165 211 241 327 8 138 226 290 283 218 149 105 53 38 61 39 18 10 356 358 10 22 26
228 223 219 218 213 196 186 174 172 177 204 203 178 177 178 172 177 151 78 280 274 117 111 252 104 104 133 85 74 116 204 297 96 274 349 80 174 59 122 203 171 171 168 138 208 262 142 118 182 158 141 181 210 224 186 159 158 243 211 123 137 155 165 154 138 164 217 42 305 301 135 228 268 272 282 143 148 234 198 190 195 194 225 260 5 22 30 28
224 220 217 218 217 206 204 215 191 193 230 184 167 174 169 169 176 80 76 226 251 87 91 124 128 50 56 103 57 65 51 24 108 263 352 74 47 59 145 207 147 140 110 127 209 255 96 215 194 147 145 205 218 247 179 167 198 213 130 97 75 77 85 90 112 126 71 54 246 239 185 206 271 281 269 178 233 227 202 204 209 203 217 223 204 132 52 37
221 217 217 215 213 210 212 226 221 207 211 183 169 165 160 160 140 108 207 233 143 104 109 110 157 134 102 123 51 355 84 35 23 8 19 74 18 32 115 162 97 116 38 13 269 254 320 296 172 139 168 191 156 69 140 160 150 140 108 64 45 36 37 39 58 91 78 271 249 232 200 182 263 280 221 188 218 189 168 178 206 213 220 222 218 196 135 56
219 216 216 210 208 208 204 217 218 208 198 184 167 151 153 119 65 177 217 234 69 135 134 122 184 131 128 141 166 180 109 39 357 80 87 86 37 35 69 106 79 77 11 338 298 305 331 315 246 210 164 133 100 66 47 49 86 107 86 72 67 347 10 21 356 43 144 252 264 269 221 165 217 262 228 209 230 189 172 177 183 191 203 207 208 197 182 168
218 217 218 213 211 211 206 205 208 202 196 181 162 141 147 134 211 214 224 41 136 203 157 165 197 152 148 131 132 162 134 120 195 119 132 133 145 173 165 162 151 71 343 253 265 340 299 243 253 283 181 133 108 77 34 27 57 85 95 98 92 328 343 341 317 317 228 247 262 279 189 177 232 245 213 226 253 249 245 213 181 181 188 193 195 193 184 169
218 217 219 219 216 214 216 214 201 195 188 174 158 123 137 192 222 213 203 199 208 193 135 126 120 133 140 126 170 177 124 162 185 145 139 119 144 218 252 194 169 121 104 200 195 0 301 296 324 140 239 178 143 144 163 183 113 140 150 132 128 136 325 281 273 267 271 266 271 286 198 226 268 260 199 241 264 266 262 239 194 180 179 181 182 181 177 173
220 218 221 223 220 221 223 219 211 196 181 168 154 131 177 217 228 179 186 210 216 109 100 113 108 110 137 157 212 181 137 206 174 133 127 109 127 218 247 228 188 121 100 138 185 168 186 300 247 170 234 206 175 182 163 145 142 171 161 132 144 157 169 230 226 215 260 285 296 293 205 193 221 212 223 242 262 284 258 195 166 161 161 156 152 163 181 190
222 218 221 221 218 223 223 220 220 201 180 168 164 174 196 222 232 147 187 197 164 115 68 93 114 115 162 211 260 204 183 211 162 126 140 159 166 191 198 205 194 151 125 157 219 153 156 257 263 255 261 139 173 219 122 112 128 195 131 111 165 184 162 196 202 174 186 294 293 243 224 222 185 164 301 281 332 14 65 135 143 152 146 138 156 182 194 203
213 209 213 214 216 221 218 217 213 196 181 172 197 197 208 218 184 190 214 152 161 156 121 89 97 118 189 216 235 227 200 146 154 144 174 191 194 199 200 211 192 177 163 158 197 157 128 269 291 329 333 97 137 205 109 117 181 151 122 177 222 185 134 129 264 78 86 266 269 195 236 285 311 8 341 20 50 57 112 145 154 164 160 162 191 202 201 208
193 192 198 205 213 215 213 212 200 188 181 185 209 210 220 204 165 194 289 342 215 144 133 164 185 150 181 190 202 206 166 127 157 163 193 206 210 194 200 240 190 188 190 158 202 198 139 265 303 53 132 339 145 144 64 46 128 120 177 217 212 142 103 101 255 346 36 248 271 219 220 259 232 260 335 32 109 172 183 176 167 177 183 190 207 209 208 214
174 173 180 192 198 197 197 196 188 181 179 204 215 217 201 185 177 107 0 323 336 59 129 180 196 154 172 179 191 181 166 177 171 170 183 196 233 183 167 199 180 194 209 142 148 241 125 231 302 352 168 303 1 102 61 11 72 118 187 198 112 153 162 85 169 240 249 251 285 291 236 239 209 202 212 205 199 192 190 187 186 195 196 200 209 210 212 216
161 154 169 184 182 177 178 183 180 176 186 202 214 222 192 172 194 116 50 322 356 48 111 179 68 66 135 153 156 153 163 173 165 173 180 167 220 200 159 176 163 221 267 146 156 214 109 158 282 287 228 295 15 80 159 254 23 65 108 58 62 161 170 146 156 173 192 250 289 291 280 260 232 195 179 195 195 181 180 189 198 199 196 201 204 199 204 208
145 141 290 201 175 167 168 178 180 178 196 198 203 205 166 30 213 242 31 46 26 40 72 38 57 83 111 104 105 126 111 141 158 175 207 165 185 214 205 170 142 155 340 94 133 136 75 126 239 291 312 243 171 205 186 183 165 110 132 180 240 156 139 199 234 127 137 180 250 279 280 267 253 194 182 197 193 180 183 188 193 195 197 204 202 192 196 201
123 134 318 210 175 165 163 171 182 162 171 200 156 159 201 144 135 17 28 63 68 56 75 82 75 90 121 106 165 177 113 128 168 174 220 208 186 198 234 103 145 157 103 84 130 185 120 132 179 266 329 195 226 249 194 181 172 157 176 196 186 160 122 201 262 236 115 180 192 236 276 273 266 230 213 212 195 191 192 188 185 192 198 200 198 195 197 198
111 130 114 188 175 165 149 133 80 103 137 205 180 149 158 116 86 25 34 48 54 53 48 54 80 107 147 174 199 171 144 163 186 182 202 209 201 202 240 37 137 137 114 129 195 204 146 115 132 212 220 215 252 291 149 174 159 143 174 188 160 145 134 176 236 241 158 234 164 121 275 278 296 326 276 246 210 199 193 185 188 198 198 193 196 202 203 203
96 92 38 179 176 162 134 132 132 159 192 228 184 80 57 93 54 16 36 39 47 63 51 39 169 188 215 212 181 168 184 191 181 185 204 204 204 220 314 71 168 114 100 153 192 172 127 103 126 273 297 309 325 350 42 61 80 130 230 157 145 162 153 180 213 183 162 230 209 59 265 267 323 345 302 259 205 176 175 182 190 197 195 194 204 208 207 204
100 67 21 184 191 180 155 162 174 180 198 174 144 150 26 70 113 111 122 162 145 122 133 185 198 215 226 187 167 194 210 207 201 201 196 184 183 66 33 22 212 155 124 190 182 181 208 142 122 293 314 323 335 348 352 355 6 215 244 227 171 141 108 106 154 113 207 223 200 228 255 252 281 350 17 45 107 144 180 191 188 192 195 203 211 209 206 200
96 59 10 334 346 16 142 153 124 162 176 149 153 180 136 77 203 176 163 183 172 141 157 237 231 189 193 151 153 204 207 217 234 233 119 163 245 23 27 5 337 192 242 281 200 182 187 170 143 167 231 249 243 218 229 269 241 204 220 225 211 172 152 149 140 179 230 217 187 228 253 266 292 354 50 61 108 152 196 198 197 213 207 206 212 209 201 194
114 91 99 0 348 351 163 129 104 121 161 153 146 188 179 190 287 176 175 199 202 155 171 244 137 139 198 167 161 213 224 221 218 193 119 184 253 333 359 7 28 137 110 35 31 86 123 183 198 189 220 237 223 214 201 152 153 205 222 213 202 193 178 150 124 201 216 192 241 239 231 308 279 256 120 112 165 185 205 197 199 220 221 216 217 206 196 197
120 148 153 148 214 247 246 201 147 128 152 169 169 180 188 198 217 33 194 207 205 187 204 220 170 185 206 162 171 220 220 212 208 189 172 186 229 321 328 40 56 37 41 39 353 65 109 231 227 199 237 244 186 202 203 157 187 217 224 226 213 188 161 160 205 220 163 151 262 249 149 219 263 252 190 206 206 206 218 209 204 210 213 219 215 188 196 212
113 170 189 155 143 194 208 198 173 166 171 179 178 145 179 191 189 193 198 106 1 202 207 229 199 204 203 163 172 214 196 198 216 194 163 161 156 62 3 28 41 10 41 39 341 79 131 239 226 173 245 254 139 168 203 180 226 236 228 238 230 193 170 187 221 216 162 210 258 255 152 212 253 240 192 214 206 206 217 210 204 198 176 193 208 212 222 222
100 61 279 19 49 192 194 155 159 177 184 176 192 196 178 185 191 192 137 105 284 224 205 223 216 204 205 183 181 211 194 183 218 211 168 166 168 148 156 247 264 17 55 81 2 65 144 234 198 142 252 266 291 36 161 190 240 259 247 242 227 191 187 201 223 212 189 230 260 277 223 245 250 188 198 224 194 200 226 204 190 192 182 202 223 233 235 221
139 175 182 70 64 173 179 123 151 182 189 183 212 212 180 191 196 188 130 162 196 212 204 220 218 190 199 197 200 223 215 188 207 211 168 168 206 181 191 210 161 53 44 105 42 306 190 200 86 107 251 276 304 76 68 207 226 251 257 248 201 155 188 213 232 220 211 248 264 273 267 268 263 168 191 240 201 208 254 243 227 226 222 232 241 248 252 234
111 96 120 136 158 163 159 137 146 172 190 198 213 194 179 211 200 181 203 208 196 186 193 211 215 195 196 202 212 229 221 188 206 209 175 178 205 190 199 202 154 135 145 158 150 214 192 196 55 93 205 259 183 131 135 56 355 263 263 250 184 165 199 209 213 206 206 231 249 256 258 266 269 129 166 239 222 224 245 246 250 261 254 245 247 247 243 227
105 46 70 132 169 173 169 149 151 181 201 202 204 188 193 214 184 166 200 241 188 186 199 202 197 181 190 209 219 227 204 162 180 187 157 146 117 105 147 178 149 146 162 168 153 132 164 163 120 146 199 244 35 145 150 108 289 267 263 231 185 202 221 218 227 226 213 213 227 240 249 257 200 131 180 242 226 223 239 236 236 250 250 236 235 237 233 222